Tracking 17147 objects as of 3-July-2015
HD Live streaming from Space Station

COSMOS 2286

Track COSMOS 2286 now!
COSMOS 2286 is classified as:


NORAD ID: 23194
Int'l Code: 1994-048A
Perigee: 3,633.4 km
Apogee: 36,766.5 km
Inclination: 67.3 °
Period: 718.4 minutes
Semi major axis: 26570 km
RCS: 14.1879 m2 (large)
Launch date: August 5, 1994
Source: Commonwealth of Independent States (former USSR) (CIS)
Your satellite tracking list
Your tracking list is empty





NASA's NSSDC Master Catalog

Two Line Element Set (TLE):
1 23194U 94048A   15184.40027975  .00000666  00000-0  00000+0 0  9994
2 23194 067.3179 060.2444 6234839 195.4986 081.2206 02.00443573153197

Source of the keplerian elements: AFSPC

N2YO: 273